Regional Weather Roundup
Issued by NWS Cleveland, OH

Home | Current Version | Previous Version | Text Only | Print | Product List | Glossary Off
Versions: 1 2 3 4 5 6 7 8 9 10 11 12 13 14 15 16 17 18 19 20 21 22 23 24 25 26 27 28 29 30 31 32 33 34 35 36 37 38 39 40 41 42 43 44 45 46 47 48 49 50

000
ASUS41 KCLE 260112
RWRCLE
OHIO REGIONAL WEATHER ROUNDUP
NATIONAL WEATHER SERVICE WILMINGTON, OH
900 PM EDT WED MAY 25 2016

NOTE: "FAIR" INDICATES FEW OR NO CLOUDS BELOW 12,000 FEET WITH NO
SIGNIFICANT WEATHER AND/OR OBSTRUCTIONS TO VISIBILITY.

OHZ001>008-015>018-024>027-034-035-043-044-260200-
   NORTHWEST OHIO

CITY           SKY/WX    TMP DP  RH WIND       PRES   REMARKS
DEFIANCE       MOCLDY    81  59  47 S8        29.97R
FINDLAY        FAIR      78  56  46 S15       30.01R
TOLEDO EXPRESS MOCLDY    76  59  55 E7        29.98R
TOLEDO EXEC    FAIR      76  58  53 SE9       30.00R
LIMA           FAIR      77  58  51 S12       30.02R
$$

OHZ009>014-019>023-028>033-038-089-260200-
   NORTHEAST OHIO

CITY           SKY/WX    TMP DP  RH WIND       PRES   REMARKS
CLE-HOPKINS    MOCLDY    76  55  48 S8        30.06F
CLE-LAKEFRONT  FAIR      78  55  44 S14       30.03S
CUY CO. ARPT   MOCLDY    77  57  50 S9        30.06S
LORAIN-ELYRIA  FAIR      74  55  51 S9        30.05S
ASHTABULA      FAIR      72  55  55 E3        30.07F
AKRON-CANTON   MOCLDY    73  55  53 S9        30.09F
WOOSTER        MOCLDY    70  58  65 SE7       30.08S
MANSFIELD      FAIR      73  58  59 S12       30.07R
YOUNGSTOWN     MOCLDY    74  54  49 SW10      30.09S
$$

OHZ042-051>053-060>062-070>072-077>081-260200-
  SOUTHWEST OHIO

CITY           SKY/WX    TMP DP  RH WIND       PRES   REMARKS
CINC-COVINGTON MOCLDY    76  64  66 S10G20    30.05S
CINC-LUNKEN    FAIR      73  65  75 S7        30.05R
HAMILTON       FAIR      78  63  59 SW6       30.04R
DAYTON         MOCLDY    77  61  57 S9        30.04S
WRIGHT-PAT AFB MOCLDY    77  64  63 S7        30.03R
DAYTON GENERAL FAIR      76  60  57 S12       30.04R
WILMINGTON     MOCLDY    74  64  71 S9        30.06R
$$

OHZ036-037-039>041-045>050-054>059-063>069-073>076-082>088-260200-
  CENTRAL AND SOUTHEAST OHIO

CITY           SKY/WX    TMP DP  RH WIND       PRES   REMARKS
COLUMBUS       MOCLDY    75  58  55 SE9       30.05S
OSU AIRPORT    FAIR      76  58  53 S10       30.05S
BOLTON FIELD   FAIR      73  62  67 S8        30.06R
RICKENBACK AFB FAIR      74  60  62 S7        30.05R
NEWARK         FAIR      74  59  59 SE3       30.06F
MARION         FAIR      73  58  59 S9        30.05R
LANCASTER      FAIR      73  60  63 S7        30.07F
ZANESVILLE     FAIR      73  59  61 S6        30.09S
NEW PHILLY     FAIR      75  56  51 SE5       30.09F
$$




USA.gov is the U.S. government's official web portal to all federal, state and local government web resources and services.